CW6688 Weather Reports


Display with metric or nautical units.
time (UTC)temp
F
wind
direction
speed
MPH
gust
MPH
rain 1hr
in
rain 24hr
in
rain mn
in
humidity
%
barometer
mb
20260503010404 78 271 0.0 4.0 0.00 0.00 0.00 48 1012.4
20260503005337 78 277 0.0 8.0 0.00 0.00 0.00 49 1012.5
20260503004410 78 270 0.0 9.0 0.00 0.00 0.00 49 1012.7
20260503003330 78 271 0.0 2.0 0.00 0.00 0.00 50 1012.7
20260503002342 77 277 1.0 9.0 0.00 0.00 0.00 50 1012.6
20260503001354 79 269 0.0 4.0 0.00 0.00 0.00 49 1012.6
20260503000404 78 271 0.0 2.0 0.00 0.00 0.00 51 1012.7
20260502235333 77 275 0.0 9.0 0.00 0.00 0.00 52 1012.8
20260502234343 76 299 0.0 9.0 0.00 0.00 0.00 54 1012.8
20260502233324 76 277 0.0 8.0 0.00 0.00 0.00 54 1012.9
20260502232332 76 272 3.0 10.0 0.00 0.00 0.00 54 1013.2
20260502231359 76 274 1.0 8.0 0.00 0.00 0.00 55 1013.5
20260502230331 76 274 0.0 9.0 0.00 0.00 0.00 54 1013.6
20260502225325 76 289 1.0 7.0 0.00 0.00 0.00 55 1013.7
20260502224339 76 267 1.0 8.0 0.00 0.00 0.00 54 1013.8
20260502223333 75 307 1.0 9.0 0.00 0.00 0.00 56 1013.7
20260502222344 75 268 2.0 9.0 0.00 0.00 0.00 54 1013.9
20260502221325 76 254 1.0 9.0 0.00 0.00 0.00 54 1013.9
20260502220335 75 269 1.0 9.0 0.00 0.00 0.00 55 1013.9
20260502215342 75 278 1.0 7.0 0.00 0.00 0.00 55 1014.1
20260502214329 74 261 0.0 8.0 0.00 0.00 0.00 57 1014.3
20260502213339 73 269 1.0 10.0 0.00 0.00 0.00 58 1014.3
20260502212411 73 294 0.0 8.0 0.00 0.00 0.00 58 1014.5
20260502211332 73 280 2.0 8.0 0.00 0.00 0.00 57 1014.6
20260502210403 73 290 0.0 2.0 0.00 0.00 0.00 58 1014.5
20260502205332 72 277 0.0 3.0 0.00 0.00 0.00 59 1014.7
20260502204342 72 289 1.0 8.0 0.00 0.00 0.00 60 1014.7
20260502203335 71 281 0.0 4.0 0.00 0.00 0.00 60 1014.9